When you browse on this site, cookies collect data to enhance your experience and personalize the content and advertising you see.
Visit our Privacy Policy to learn more. By continuing to use the site, you agree to this use of cookies and data.
  • In United Kingdom
  • List of Countries
  • For 7 days
  • Water Temperature
  • Weather Map
  • Weather Widgets
  • user-avatar
    Login

    Hourly Weather Hasselt

    Today, 18 February, Tuesday

    Time Temperature Precipitation Wind Pressure Humidity
    00:00 +5°C° 0 mm 7 mps 760 mmHg 76%
    01:00 +5°C° 0 mm 7 mps 760 mmHg 76%
    02:00 +5°C° 0 mm 7 mps 761 mmHg 76%
    03:00 +4°C° 0 mm 7 mps 761 mmHg 77%
    04:00 +4°C° 0 mm 7 mps 762 mmHg 79%
    05:00 +3°C° 0 mm 6 mps 762 mmHg 80%
    06:00 +3°C° 0 mm 5 mps 763 mmHg 81%
    07:00 +3°C° 0 mm 6 mps 763 mmHg 80%
    08:00 +4°C° 0 mm 7 mps 763 mmHg 79%
    09:00 +4°C° 0 mm 8 mps 764 mmHg 78%
    10:00 +4°C° 0.1 mm 8 mps 763 mmHg 79%
    11:00 +4°C° 0.1 mm 8 mps 763 mmHg 81%
    12:00 +4°C° 0.1 mm 8 mps 763 mmHg 82%
    13:00 +5°C° 0 mm 8 mps 763 mmHg 79%
    14:00 +5°C° 0 mm 8 mps 763 mmHg 75%
    15:00 +6°C° 0 mm 7 mps 762 mmHg 72%
    16:00 +5°C° 0 mm 7 mps 762 mmHg 74%
    17:00 +5°C° 0 mm 7 mps 762 mmHg 76%
    18:00 +4°C° 0 mm 6 mps 761 mmHg 78%
    19:00 +5°C° 0 mm 7 mps 761 mmHg 77%
    20:00 +5°C° 0 mm 7 mps 760 mmHg 76%
    21:00 +5°C° 0 mm 7 mps 760 mmHg 75%
    22:00 +5°C° 0.5 mm 7 mps 759 mmHg 79%
    23:00 +4°C° 0.5 mm 8 mps 758 mmHg 83%

    Tomorrow, 19 February, Wednesday

    Time Temperature Precipitation Wind Pressure Humidity
    00:00 +4°C° 0.5 mm 8 mps 757 mmHg 87%
    01:00 +4°C° 1.3 mm 7 mps 757 mmHg 88%
    02:00 +4°C° 1.3 mm 7 mps 757 mmHg 88%
    03:00 +3°C° 1.3 mm 7 mps 757 mmHg 88%
    04:00 +3°C° 0.2 mm 6 mps 758 mmHg 85%
    05:00 +2°C° 0.2 mm 6 mps 759 mmHg 83%
    06:00 +1°C° 0.2 mm 5 mps 760 mmHg 80%
    07:00 +2°C° 0 mm 5 mps 760 mmHg 77%
    08:00 +2°C° 0 mm 6 mps 761 mmHg 75%
    09:00 +3°C° 0 mm 6 mps 761 mmHg 73%
    10:00 +3°C° 0 mm 6 mps 762 mmHg 71%
    11:00 +4°C° 0 mm 6 mps 762 mmHg 69%
    12:00 +4°C° 0 mm 6 mps 762 mmHg 67%
    13:00 +4°C° 0 mm 6 mps 762 mmHg 65%
    14:00 +4°C° 0 mm 6 mps 762 mmHg 64%
    15:00 +5°C° 0 mm 5 mps 762 mmHg 62%
    16:00 +5°C° 0 mm 5 mps 762 mmHg 67%
    17:00 +4°C° 0 mm 4 mps 762 mmHg 71%
    18:00 +4°C° 0 mm 4 mps 762 mmHg 75%
    19:00 +3°C° 0 mm 5 mps 761 mmHg 78%
    20:00 +3°C° 0 mm 5 mps 761 mmHg 80%
    21:00 +4°C° 0 mm 6 mps 761 mmHg 82%
    22:00 +4°C° 0.1 mm 6 mps 760 mmHg 83%
    23:00 +5°C° 0.1 mm 6 mps 760 mmHg 84%

    Day after tomorrow, 20 February, Thursday

    Time Temperature Precipitation Wind Pressure Humidity
    00:00 +5°C° 0.1 mm 7 mps 760 mmHg 85%
    01:00 +5°C° 0 mm 7 mps 759 mmHg 86%
    02:00 +5°C° 0 mm 6 mps 759 mmHg 87%
    03:00 +5°C° 0 mm 6 mps 759 mmHg 87%
    04:00 +5°C° 0 mm 6 mps 758 mmHg 86%
    05:00 +5°C° 0 mm 6 mps 758 mmHg 85%
    06:00 +5°C° 0 mm 6 mps 758 mmHg 84%
    07:00 +5°C° 0 mm 6 mps 758 mmHg 81%
    08:00 +6°C° 0 mm 7 mps 758 mmHg 78%
    09:00 +6°C° 0 mm 7 mps 758 mmHg 75%
    10:00 +6°C° 0 mm 7 mps 758 mmHg 73%
    11:00 +8°C° 0 mm 7 mps 757 mmHg 71%
    12:00 +7°C° 0 mm 8 mps 757 mmHg 69%
    13:00 +7°C° 0 mm 8 mps 756 mmHg 70%
    14:00 +7°C° 0 mm 8 mps 756 mmHg 70%
    15:00 +7°C° 0 mm 9 mps 755 mmHg 71%
    16:00 +7°C° 0 mm 9 mps 755 mmHg 72%
    17:00 +7°C° 0 mm 9 mps 754 mmHg 73%
    18:00 +7°C° 0 mm 10 mps 754 mmHg 75%
    19:00 +6°C° 1 mm 9 mps 755 mmHg 79%
    20:00 +4°C° 1 mm 8 mps 756 mmHg 83%
    21:00 +3°C° 1 mm 7 mps 757 mmHg 86%
    22:00 +3°C° 0.2 mm 7 mps 758 mmHg 82%
    23:00 +2°C° 0.2 mm 6 mps 759 mmHg 77%

    21 February, Friday

    Time Temperature Precipitation Wind Pressure Humidity
    00:00 +2°C° 0.2 mm 5 mps 761 mmHg 72%
    01:00 +1°C° 0 mm 5 mps 761 mmHg 72%
    02:00 +1°C° 0 mm 6 mps 762 mmHg 73%
    03:00 +1°C° 0 mm 6 mps 763 mmHg 74%
    04:00 +1°C° 0 mm 6 mps 764 mmHg 74%
    05:00 0°C° 0 mm 5 mps 764 mmHg 75%
    06:00 0°C° 0 mm 5 mps 765 mmHg 76%
    13:00 +7°C° 0 mm 6 mps 768 mmHg 61%
    14:00 +7°C° 0 mm 6 mps 767 mmHg 61%
    15:00 +7°C° 0 mm 6 mps 767 mmHg 61%
    16:00 +7°C° 0 mm 6 mps 767 mmHg 65%
    17:00 +5°C° 0 mm 6 mps 767 mmHg 68%
    18:00 +6°C° 0 mm 5 mps 767 mmHg 72%
    19:00 +4°C° 0 mm 6 mps 767 mmHg 74%
    20:00 +4°C° 0 mm 6 mps 767 mmHg 77%
    21:00 +3°C° 0 mm 6 mps 767 mmHg 79%
    22:00 +3°C° 0 mm 6 mps 767 mmHg 79%
    23:00 +3°C° 0 mm 7 mps 767 mmHg 78%

    22 February, Saturday

    Time Temperature Precipitation Wind Pressure Humidity
    00:00 +3°C° 0 mm 7 mps 767 mmHg 78%
    01:00 +3°C° 0 mm 7 mps 766 mmHg 78%
    02:00 +3°C° 0 mm 7 mps 766 mmHg 78%
    03:00 +3°C° 0 mm 7 mps 766 mmHg 79%
    04:00 +2°C° 0 mm 8 mps 765 mmHg 77%
    05:00 +2°C° 0 mm 8 mps 765 mmHg 75%
    06:00 +2°C° 0 mm 8 mps 765 mmHg 73%
    07:00 +4°C° 0 mm 8 mps 765 mmHg 72%
    08:00 +4°C° 0 mm 8 mps 765 mmHg 72%
    09:00 +3°C° 0 mm 9 mps 765 mmHg 71%
    10:00 +5°C° 0 mm 9 mps 765 mmHg 70%
    11:00 +5°C° 0 mm 9 mps 765 mmHg 69%
    12:00 +6°C° 0 mm 9 mps 765 mmHg 68%
    13:00 +6°C° 0 mm 9 mps 765 mmHg 68%
    14:00 +7°C° 0 mm 9 mps 764 mmHg 69%
    15:00 +7°C° 0 mm 9 mps 764 mmHg 70%
    16:00 +7°C° 0 mm 9 mps 764 mmHg 71%
    17:00 +7°C° 0 mm 9 mps 764 mmHg 72%
    18:00 +7°C° 0 mm 9 mps 764 mmHg 73%
    19:00 +7°C° 0 mm 9 mps 764 mmHg 75%
    20:00 +8°C° 0 mm 9 mps 764 mmHg 76%
    21:00 +8°C° 0 mm 9 mps 764 mmHg 77%
    22:00 +8°C° 0 mm 9 mps 764 mmHg 79%
    23:00 +8°C° 0 mm 9 mps 764 mmHg 81%

    23 February, Sunday

    Time Temperature Precipitation Wind Pressure Humidity
    00:00 +10°C° 0 mm 9 mps 764 mmHg 84%
    01:00 +10°C° 0.1 mm 8 mps 764 mmHg 84%
    02:00 +10°C° 0.1 mm 8 mps 764 mmHg 85%
    03:00 +10°C° 0.1 mm 8 mps 764 mmHg 86%
    04:00 +10°C° 0.7 mm 8 mps 764 mmHg 87%
    05:00 +9°C° 0.7 mm 8 mps 763 mmHg 87%
    06:00 +9°C° 0.7 mm 8 mps 763 mmHg 88%
    07:00 +9°C° 0.4 mm 8 mps 763 mmHg 87%
    08:00 +10°C° 0.4 mm 9 mps 763 mmHg 86%
    09:00 +10°C° 0.4 mm 9 mps 763 mmHg 85%
    10:00 +9°C° 0 mm 10 mps 763 mmHg 83%
    11:00 +11°C° 0 mm 10 mps 763 mmHg 82%
    12:00 +11°C° 0 mm 10 mps 762 mmHg 80%
    13:00 +11°C° 0 mm 10 mps 762 mmHg 79%
    14:00 +12°C° 0 mm 10 mps 762 mmHg 79%
    15:00 +12°C° 0 mm 9 mps 761 mmHg 79%
    16:00 +12°C° 0 mm 9 mps 761 mmHg 79%
    17:00 +12°C° 0 mm 9 mps 761 mmHg 79%
    18:00 +11°C° 0 mm 9 mps 761 mmHg 79%
    19:00 +11°C° 0 mm 9 mps 761 mmHg 79%
    20:00 +11°C° 0 mm 10 mps 761 mmHg 79%
    21:00 +11°C° 0 mm 10 mps 762 mmHg 79%
    22:00 +11°C° 0 mm 10 mps 762 mmHg 79%
    23:00 +11°C° 0 mm 9 mps 762 mmHg 79%
    Show more